TimePDT,TemperatureF,Dew PointF,Humidity,Sea Level PressureIn,VisibilityMPH,Wind Direction,Wind SpeedMPH,Gust SpeedMPH,PrecipitationIn,Events,Conditions,WindDirDegrees,DateUTC
12:53 AM,54.0,41.0,62,29.99,10.0,Calm,Calm,-,N/A,,Clear,0,2013-07-17 07:53:00
1:53 AM,50.0,42.1,74,30.01,10.0,Calm,Calm,-,N/A,,Clear,0,2013-07-17 08:53:00
2:53 AM,48.0,42.1,80,30.02,10.0,NE,4.6,-,N/A,,Clear,40,2013-07-17 09:53:00
3:53 AM,48.0,42.1,80,30.03,10.0,Calm,Calm,-,N/A,,Clear,0,2013-07-17 10:53:00
4:53 AM,48.0,43.0,83,30.05,10.0,Calm,Calm,-,N/A,,Clear,0,2013-07-17 11:53:00
5:53 AM,46.0,39.0,76,30.08,10.0,Calm,Calm,-,N/A,,Clear,0,2013-07-17 12:53:00
6:53 AM,50.0,41.0,71,30.09,10.0,Calm,Calm,-,N/A,,Clear,0,2013-07-17 13:53:00
7:53 AM,55.9,39.9,55,30.11,10.0,SSE,4.6,-,N/A,,Clear,160,2013-07-17 14:53:00
8:53 AM,62.1,43.0,50,30.12,10.0,South,3.5,-,N/A,,Clear,170,2013-07-17 15:53:00
9:53 AM,66.9,42.1,40,30.11,10.0,Calm,Calm,-,N/A,,Clear,0,2013-07-17 16:53:00
10:53 AM,72.0,42.1,34,30.09,10.0,Calm,Calm,-,N/A,,Clear,0,2013-07-17 17:53:00
11:53 AM,75.9,37.9,25,30.09,10.0,Variable,4.6,-,N/A,,Clear,0,2013-07-17 18:53:00
12:53 PM,78.1,35.1,21,30.10,10.0,East,3.5,-,N/A,,Clear,100,2013-07-17 19:53:00
1:53 PM,81.0,35.1,19,30.09,10.0,SW,8.1,-,N/A,,Clear,220,2013-07-17 20:53:00
2:53 PM,82.0,28.0,14,30.08,10.0,SW,4.6,-,N/A,,Clear,230,2013-07-17 21:53:00
3:53 PM,84.9,30.0,14,30.06,10.0,Variable,3.5,-,N/A,,Clear,0,2013-07-17 22:53:00
4:53 PM,86.0,30.0,13,30.05,10.0,East,3.5,-,N/A,,Clear,90,2013-07-17 23:53:00
5:53 PM,84.0,28.9,14,30.04,10.0,East,4.6,-,N/A,,Clear,100,2013-07-18 00:53:00
6:53 PM,84.0,30.0,14,30.03,10.0,Calm,Calm,-,N/A,,Clear,0,2013-07-18 01:53:00
7:53 PM,82.0,35.1,18,30.02,10.0,North,5.8,-,N/A,,Clear,350,2013-07-18 02:53:00
8:53 PM,71.1,45.0,39,30.04,10.0,West,6.9,-,N/A,,Clear,280,2013-07-18 03:53:00
9:53 PM,72.0,42.1,34,30.05,10.0,NW,8.1,-,N/A,,Clear,310,2013-07-18 04:53:00
10:53 PM,63.0,46.9,56,30.07,10.0,SW,3.5,-,N/A,,Clear,220,2013-07-18 05:53:00
11:53 PM,55.9,48.0,75,30.09,10.0,Calm,Calm,-,N/A,,Clear,0,2013-07-18 06:53:00